Weather observations for the past three days for
Pohnpei Island
Imperial (Metric)
Date Time (+11) Wind (mph) Vis. (mi.) Weather Sky Cond. Temperature (ºF) Relative Humidity Wind Chill (°F) Heat Index (°F) Pressure Precipitation (in)
Air Dwpt 6 hour altimeter (in) sea level (mb) 1 hr 3 hr 6 hr
Max. Min.
07 14:54 E 14 14.00 Light Rain BKN017TCU OVC120 82.4 77 84% 91 29.7 0.0
07 13:51 E 13 G 20 10.00 Light Rain BKN017TCU OVC120 82.4 77 84% 91 29.75 0.0
07 12:57 E 13 10.00 Showers in Vicinity BKN017TCU OVC120 82.4 77 84% 91 29.75 0.0
07 11:58 E 15 14.00 Showers in Vicinity BKN017TCU OVC120 82.4 77 84% 91 29.76 0.0
07 10:58 E 15 14.00 Light Rain BKN017TCU OVC120 80.6 77 89% 87 29.77 0.0
07 09:51 E 9 12.00 Light Rain BKN017TCU OVC120 78.8 77 94% 83 29.8 0.0
07 08:51 E 5 13.00 Light Rain BKN017TCU OVC120 78.8 77 94% 83 29.81 0.0
07 07:57 E 5 13.00 Light Rain BKN017TCU OVC120 78.8 77 94% 83 29.8 0.0
06 17:53 NE 12 3.00 Light Showers Rain BKN017CB OVC120 78.8 77 94% 83 29.74 0.0
06 16:53 E 7 7.00 Light Showers Rain BKN017CB OVC120 78.8 77 94% 83 29.72 0.0
06 16:30 E 12 2.00 Showers Rain BKN017CB OVC120 80.6 77 89% 87 29.71 0.0
06 15:56 E 12 15.00 Overcast SCT017CB BKN130 OVC300 87.8 77 70% 100 29.71 0.0
06 14:55 E 8 15.00 Mostly Cloudy SCT017TCU BKN130 BKN300 86 78.8 79% 99 29.72 0.0
06 13:56 E 8 15.00 Mostly Cloudy SCT017CB BKN130 BKN300 84.2 78.8 84% 96 29.73 0.0
06 12:52 SE 9 15.00 Mostly Cloudy SCT017CB BKN130 BKN300 87.8 77 70% 100 29.74 0.0
06 11:53 E 13 15.00 Mostly Cloudy SCT017CB BKN130 BKN300 89.6 78.8 71% 105 29.75 0.0
06 10:53 E 13 15.00 Mostly Cloudy SCT017CB BKN130 BKN300 89.6 78.8 71% 105 29.76 0.0
06 09:58 E 9 15.00 Mostly Cloudy SCT017 BKN130 BKN300 84.2 78.8 84% 96 29.76 0.0
06 08:59 E 9 15.00 Overcast SCT018TCU BKN130 OVC300 82.4 78.8 89% 92 29.75 0.0
06 08:54 NE 9 15.00 Mostly Cloudy SCT017CB BKN130 BKN300 82.4 78.8 89% 92 29.77 0.0
06 07:59 NE 9 15.00 Overcast SCT017CB BKN130 OVC300 82.4 78.8 89% 92 29.75 0.0
05 15:56 NE 9 15.00 Overcast BKN018TCU OVC130 87.8 77 70% 100 29.73 0.0
05 14:56 NE 12 15.00 Overcast BKN018TCU OVC130 87.8 77 70% 100 29.74 0.0
05 13:55 NE 12 15.00 Overcast BKN018TCU OVC300 87.8 77 70% 100 29.75 0.0
05 11:52 NE 9 G 20 15.00 Overcast BKN017TCU OVC300 86 77 75% 97 29.78 0.0
05 10:58 NE 12 G 20 15.00 Overcast BKN017TCU OVC130 87.8 77 70% 100 29.78 0.0
05 09:58 E 16 15.00 Overcast BKN017TCU OVC130 84.2 77 79% 94 29.79 0.0
05 08:58 E 13 15.00 Overcast BKN017TCU BKN120 OVC280 84.2 77 79% 94 29.78 0.0
05 07:54 E 15 15.00 Overcast BKN017TCU BKN120 OVC280 82.4 77 84% 91 29.78 0.0
05 06:55 E 5 15.00 Overcast BKN017TCU BKN120 OVC280 80.6 77 89% 87 29.77 0.0
05 05:53 NE 5 15.00 Overcast BKN017TCU OVC120 77 75.2 94% 78 29.78 0.0
05 05:15 E 5 13.00 Overcast BKN017TCU OVC120 77 75.2 94% 78 29.78 0.0
Date Time (+11) Wind (mph) Vis. (mi.) Weather Sky Cond. Air Dwpt Max. Min. Relative Humidity Wind Chill (°F) Heat Index (°F) altimeter (in) sea level (mb) 1 hr 3 hr 6 hr
6 hour
Temperature (ºF) Pressure Precipitation (in)